TimeMDT,TemperatureF,Dew PointF,Humidity,Sea Level PressureIn,VisibilityMPH,Wind Direction,Wind SpeedMPH,Gust SpeedMPH,PrecipitationIn,Events,Conditions,WindDirDegrees,DateUTC
12:53 AM,39.9,35.1,83,30.02,10.0,ESE,4.6,-,N/A,,Partly Cloudy,120,2013-06-21 06:53:00
1:53 AM,39.0,34.0,82,30.02,10.0,SSE,6.9,-,N/A,,Scattered Clouds,160,2013-06-21 07:53:00
2:53 AM,37.0,33.1,86,30.01,10.0,West,4.6,-,N/A,,Clear,280,2013-06-21 08:53:00
3:53 AM,35.1,32.0,89,30.00,10.0,ESE,4.6,-,N/A,,Clear,120,2013-06-21 09:53:00
4:53 AM,37.0,33.1,86,30.00,10.0,SW,3.5,-,N/A,,Clear,230,2013-06-21 10:53:00
5:53 AM,37.0,32.0,82,30.02,10.0,South,6.9,-,N/A,,Clear,190,2013-06-21 11:53:00
6:53 AM,39.0,35.1,86,30.02,10.0,SSW,5.8,-,N/A,,Clear,200,2013-06-21 12:53:00
7:53 AM,42.1,37.0,82,30.03,10.0,SW,6.9,-,N/A,,Mostly Cloudy,230,2013-06-21 13:53:00
8:53 AM,45.0,37.9,76,30.02,10.0,West,4.6,-,N/A,,Clear,270,2013-06-21 14:53:00
9:53 AM,48.0,37.9,68,30.04,10.0,Calm,Calm,-,N/A,,Clear,0,2013-06-21 15:53:00
10:53 AM,48.9,37.9,66,30.04,10.0,SSW,5.8,-,N/A,,Mostly Cloudy,200,2013-06-21 16:53:00
11:53 AM,55.0,36.0,49,30.00,10.0,Calm,Calm,-,N/A,,Partly Cloudy,0,2013-06-21 17:53:00
12:53 PM,55.9,34.0,44,30.00,10.0,Calm,Calm,-,N/A,,Partly Cloudy,0,2013-06-21 18:53:00
1:53 PM,57.9,35.1,42,29.98,10.0,Calm,Calm,-,N/A,,Mostly Cloudy,0,2013-06-21 19:53:00
2:53 PM,61.0,37.0,41,29.98,10.0,NNW,5.8,-,N/A,,Scattered Clouds,340,2013-06-21 20:53:00
3:53 PM,60.1,36.0,41,29.99,10.0,North,6.9,-,N/A,,Mostly Cloudy,360,2013-06-21 21:53:00
4:53 PM,62.1,33.1,34,29.97,10.0,ENE,5.8,-,N/A,,Overcast,60,2013-06-21 22:53:00
5:53 PM,62.1,30.0,30,29.96,10.0,NE,3.5,-,N/A,,Scattered Clouds,50,2013-06-21 23:53:00
6:53 PM,64.0,33.1,31,29.94,10.0,NE,6.9,-,N/A,,Mostly Cloudy,40,2013-06-22 00:53:00
7:53 PM,55.9,37.0,49,29.96,10.0,NNW,13.8,-,N/A,,Partly Cloudy,340,2013-06-22 01:53:00
8:53 PM,55.0,37.9,53,29.97,10.0,North,6.9,-,N/A,,Overcast,350,2013-06-22 02:53:00
9:53 PM,48.9,42.1,77,30.04,5.0,SW,11.5,-,0.02,Rain,Rain,230,2013-06-22 03:53:00
10:53 PM,46.0,42.1,86,30.05,10.0,NW,3.5,-,0.04,,Overcast,320,2013-06-22 04:53:00
11:53 PM,46.9,43.0,86,30.02,10.0,Calm,Calm,-,N/A,,Overcast,0,2013-06-22 05:53:00